Terminal Aerodrome Forecast
Issued by NWS Quad Cities IA IL

Home | Current Version | Previous Version | Text Only | Print | Product List | Glossary On
Versions: 1 2 3 4 5 6 7 8 9 10 11 12 13 14 15 16 17 18 19 20 21 22 23 24 25 26 27 28 29 30 31 32 33 34 35 36 37
000
FTUS43 KDVN 280520
TAFDBQ
TAF
KDBQ 280520Z 2806/2906 01004KT P6SM OVC012
     FM280800 02005KT 4SM BR OVC009
     FM281000 02006KT 2SM BR OVC004
     FM281500 05007KT 6SM BR OVC010
     FM281900 06006KT P6SM BKN025=

USA.gov is the U.S. government's official web portal to all federal, state and local government web resources and services.